Regional Weather Roundup
Issued by NWS

Home | Current Version | Previous Version | Graphics & Text | Print | Product List | Glossary On
Versions: 1 2 3 4 5 6 7 8 9 10 11 12 13 14 15 16 17 18 19 20 21 22 23 24 25 26 27 28 29 30 31 32 33 34 35 36 37 38 39 40 41 42 43 44 45 46 47 48 49 50
000
ASUS43 KBIS 131302
RWRND

NORTH DAKOTA REGIONAL WEATHER ROUNDUP
NATIONAL WEATHER SERVICE BISMARCK ND
700 AM CST WED DEC 13 2017

NOTE: "FAIR" INDICATES FEW OR NO CLOUDS BELOW 12,000 FEET WITH NO
SIGNIFICANT WEATHER AND/OR OBSTRUCTIONS TO VISIBILITY.


NDZ001>003-009>011-017-131400-
NORTHWEST NORTH DAKOTA

CITY           SKY/WX    TMP DP  RH WIND       PRES   REMARKS
WILLISTON      PTCLDY    33  27  78 NW20      29.97R
MINOT          MOCLDY    34  29  82 NW22G31   29.84R
MINOT AFB      CLOUDY    33  28  82 NW21      29.82R
$$

NDZ018>021-031>035-040>046-131400-
SOUTHWEST NORTH DAKOTA

CITY           SKY/WX    TMP DP  RH WIND       PRES   REMARKS
BISMARCK       CLEAR     36  30  79 NW22G35   29.84R
DICKINSON      CLEAR     31  26  82 NW20      29.91R WCI  19
GARRISON         N/A     32  28  85 NW22G31   29.84R WCI  19
HETTINGER ARPT CLEAR     31  24  75 NW24G33   29.94R WCI  17
$$

NDZ004>008-012>016-024-026-027-054-131400-
NORTHEAST NORTH DAKOTA

CITY           SKY/WX    TMP DP  RH WIND       PRES   REMARKS
GRAND FORKS    CLOUDY    28  25  88 N29G39    29.67R WCI  12
GRND FRKS AFB  CLOUDY    29  23  80 N31G41    29.69R WCI  13
DEVILS LAKE    CLOUDY    34  30  85 N17       29.73R
$$

NDZ022-023-025-028>030-036>039-047>053-131400-
SOUTHEAST NORTH DAKOTA

CITY           SKY/WX    TMP DP  RH WIND       PRES   REMARKS
FARGO          CLOUDY    31  26  82 N35G45    29.66R WCI  15
JAMESTOWN      CLOUDY    35  31  85 NW28      29.70R
$$





USA.gov is the U.S. government's official web portal to all federal, state and local government web resources and services.